When you browse on this site, cookies collect data to enhance your experience and personalize the content and advertising you see.
Visit our Privacy Policy to learn more. By continuing to use the site, you agree to this use of cookies and data.
  • In Netherlands
  • List of Countries
  • For 7 days
  • Water Temperature
  • Weather Map
  • Weather Widgets
  • user-avatar
    Login

    Hourly Weather Potosi

    Today, 24 August, Saturday

    Time Temperature Precipitation Wind Pressure Humidity
    00:00 +5°C° 0 mm 2 mps 467 mmHg 67%
    01:00 +6°C° 0 mm 1 mps 467 mmHg 67%
    02:00 +5°C° 0 mm 1 mps 467 mmHg 67%
    03:00 +5°C° 0 mm 1 mps 466 mmHg 66%
    04:00 +4°C° 0 mm 1 mps 466 mmHg 65%
    05:00 +4°C° 0 mm 1 mps 465 mmHg 65%
    06:00 +5°C° 0 mm 1 mps 466 mmHg 58%
    07:00 +6°C° 0 mm 1 mps 467 mmHg 51%
    08:00 +7°C° 0 mm 1 mps 468 mmHg 45%
    09:00 +9°C° 0 mm 1 mps 469 mmHg 37%
    10:00 +10°C° 0 mm 1 mps 470 mmHg 29%
    11:00 +12°C° 0 mm 2 mps 471 mmHg 22%
    12:00 +13°C° 0 mm 2 mps 470 mmHg 20%
    13:00 +13°C° 0 mm 2 mps 470 mmHg 19%
    14:00 +13°C° 0 mm 3 mps 470 mmHg 18%
    15:00 +12°C° 0.1 mm 3 mps 469 mmHg 22%
    16:00 +12°C° 0.1 mm 3 mps 469 mmHg 26%
    17:00 +11°C° 0.1 mm 4 mps 468 mmHg 30%
    18:00 +10°C° 0.2 mm 3 mps 468 mmHg 36%
    19:00 +9°C° 0.2 mm 2 mps 468 mmHg 43%
    20:00 +9°C° 0.2 mm 1 mps 468 mmHg 49%
    21:00 +8°C° 0.1 mm 1 mps 467 mmHg 55%
    22:00 +7°C° 0.1 mm 1 mps 467 mmHg 61%
    23:00 +5°C° 0.1 mm 2 mps 467 mmHg 67%

    Tomorrow, 25 August, Sunday

    Time Temperature Precipitation Wind Pressure Humidity
    00:00 +5°C° 0.1 mm 2 mps 467 mmHg 67%
    01:00 +5°C° 0.1 mm 2 mps 466 mmHg 68%
    02:00 +5°C° 0.1 mm 1 mps 466 mmHg 68%
    03:00 +5°C° 0 mm 1 mps 466 mmHg 68%
    04:00 +5°C° 0 mm 1 mps 465 mmHg 69%
    05:00 +4°C° 0 mm 1 mps 465 mmHg 69%
    06:00 +5°C° 0 mm 1 mps 466 mmHg 61%
    07:00 +5°C° 0 mm 1 mps 467 mmHg 53%
    08:00 +5°C° 0 mm 2 mps 467 mmHg 44%
    09:00 +7°C° 0 mm 2 mps 468 mmHg 34%
    10:00 +9°C° 0 mm 3 mps 469 mmHg 24%
    11:00 +10°C° 0 mm 3 mps 470 mmHg 14%
    12:00 +11°C° 0 mm 4 mps 470 mmHg 13%
    13:00 +12°C° 0 mm 5 mps 470 mmHg 13%
    14:00 +13°C° 0 mm 6 mps 470 mmHg 12%
    15:00 +11°C° 0 mm 6 mps 470 mmHg 13%
    16:00 +12°C° 0 mm 5 mps 469 mmHg 13%
    17:00 +10°C° 0 mm 5 mps 468 mmHg 13%
    18:00 +10°C° 0 mm 4 mps 468 mmHg 18%
    19:00 +7°C° 0 mm 4 mps 468 mmHg 22%
    20:00 +7°C° 0 mm 3 mps 467 mmHg 26%
    21:00 +6°C° 0 mm 2 mps 467 mmHg 32%
    22:00 +5°C° 0 mm 2 mps 467 mmHg 37%
    23:00 +5°C° 0 mm 1 mps 467 mmHg 43%

    Day after tomorrow, 26 August, Monday

    Time Temperature Precipitation Wind Pressure Humidity
    00:00 +5°C° 0 mm 1 mps 466 mmHg 44%
    01:00 +4°C° 0 mm 1 mps 466 mmHg 46%
    02:00 +4°C° 0 mm 1 mps 465 mmHg 47%
    03:00 +3°C° 0 mm 1 mps 465 mmHg 46%
    04:00 +3°C° 0 mm 1 mps 465 mmHg 45%
    05:00 +2°C° 0 mm 1 mps 464 mmHg 44%
    06:00 +3°C° 0 mm 1 mps 466 mmHg 39%
    07:00 +4°C° 0 mm 1 mps 467 mmHg 34%
    08:00 +5°C° 0 mm 1 mps 468 mmHg 30%
    09:00 +7°C° 0 mm 1 mps 469 mmHg 26%
    10:00 +8°C° 0 mm 1 mps 469 mmHg 22%
    11:00 +9°C° 0 mm 1 mps 470 mmHg 19%
    12:00 +10°C° 0 mm 1 mps 470 mmHg 17%
    13:00 +11°C° 0 mm 1 mps 470 mmHg 15%
    14:00 +12°C° 0 mm 2 mps 470 mmHg 14%
    15:00 +12°C° 0 mm 2 mps 470 mmHg 16%
    16:00 +11°C° 0 mm 3 mps 469 mmHg 17%
    17:00 +11°C° 0 mm 4 mps 469 mmHg 19%
    18:00 +8°C° 0 mm 4 mps 469 mmHg 28%
    19:00 +8°C° 0 mm 3 mps 469 mmHg 37%
    20:00 +7°C° 0 mm 3 mps 468 mmHg 46%
    21:00 +5°C° 0 mm 3 mps 468 mmHg 53%
    22:00 +6°C° 0 mm 2 mps 468 mmHg 60%
    23:00 +5°C° 0 mm 2 mps 468 mmHg 67%

    27 August, Tuesday

    Time Temperature Precipitation Wind Pressure Humidity
    00:00 +5°C° 0 mm 1 mps 467 mmHg 70%
    01:00 +5°C° 0 mm 1 mps 467 mmHg 73%
    02:00 +4°C° 0 mm 1 mps 466 mmHg 77%
    03:00 +4°C° 0 mm 1 mps 466 mmHg 78%
    04:00 +2°C° 0 mm 0 mps 465 mmHg 78%
    05:00 +1°C° 0 mm 0 mps 465 mmHg 79%
    06:00 +2°C° 0 mm 0 mps 466 mmHg 74%
    07:00 +3°C° 0 mm 0 mps 467 mmHg 68%
    08:00 +4°C° 0 mm 0 mps 468 mmHg 63%
    09:00 +7°C° 0 mm 1 mps 469 mmHg 51%
    10:00 +8°C° 0 mm 1 mps 470 mmHg 39%
    11:00 +10°C° 0 mm 1 mps 471 mmHg 28%
    12:00 +10°C° 0 mm 2 mps 471 mmHg 25%
    13:00 +12°C° 0 mm 2 mps 471 mmHg 22%
    14:00 +12°C° 0 mm 3 mps 471 mmHg 19%
    15:00 +11°C° 0 mm 4 mps 471 mmHg 22%
    16:00 +10°C° 0 mm 5 mps 471 mmHg 24%
    17:00 +10°C° 0 mm 5 mps 470 mmHg 27%
    18:00 +9°C° 0 mm 5 mps 470 mmHg 35%
    19:00 +7°C° 0 mm 4 mps 470 mmHg 44%
    20:00 +7°C° 0 mm 3 mps 469 mmHg 53%
    21:00 +5°C° 0 mm 3 mps 469 mmHg 58%
    22:00 +6°C° 0 mm 2 mps 469 mmHg 63%
    23:00 +5°C° 0 mm 2 mps 469 mmHg 68%

    28 August, Wednesday

    Time Temperature Precipitation Wind Pressure Humidity
    00:00 +5°C° 0 mm 2 mps 468 mmHg 71%
    01:00 +5°C° 0 mm 1 mps 468 mmHg 75%
    02:00 +5°C° 0 mm 1 mps 467 mmHg 79%
    03:00 +4°C° 0 mm 1 mps 467 mmHg 82%
    04:00 +4°C° 0 mm 1 mps 467 mmHg 85%
    05:00 +3°C° 0 mm 1 mps 466 mmHg 87%
    06:00 +4°C° 0 mm 1 mps 467 mmHg 83%
    07:00 +4°C° 0 mm 1 mps 468 mmHg 78%
    08:00 +5°C° 0 mm 1 mps 469 mmHg 74%
    09:00 +6°C° 0 mm 1 mps 470 mmHg 63%
    10:00 +8°C° 0 mm 1 mps 470 mmHg 51%
    11:00 +9°C° 0 mm 2 mps 471 mmHg 40%
    12:00 +10°C° 0 mm 2 mps 471 mmHg 36%
    13:00 +12°C° 0 mm 2 mps 471 mmHg 32%
    14:00 +12°C° 0 mm 3 mps 471 mmHg 28%
    15:00 +11°C° 0.1 mm 3 mps 471 mmHg 31%
    16:00 +11°C° 0.1 mm 4 mps 470 mmHg 33%
    17:00 +11°C° 0.1 mm 4 mps 470 mmHg 35%
    18:00 +10°C° 0.1 mm 4 mps 470 mmHg 39%
    19:00 +9°C° 0.1 mm 3 mps 469 mmHg 44%
    20:00 +8°C° 0.1 mm 2 mps 469 mmHg 48%
    21:00 +7°C° 0 mm 2 mps 469 mmHg 53%
    22:00 +8°C° 0 mm 1 mps 469 mmHg 57%
    23:00 +7°C° 0 mm 1 mps 468 mmHg 62%

    29 August, Thursday

    Time Temperature Precipitation Wind Pressure Humidity
    00:00 +6°C° 0 mm 1 mps 468 mmHg 65%
    01:00 +6°C° 0 mm 1 mps 467 mmHg 68%
    02:00 +5°C° 0 mm 1 mps 467 mmHg 71%
    03:00 +4°C° 0 mm 1 mps 466 mmHg 72%
    04:00 +4°C° 0 mm 1 mps 466 mmHg 73%
    05:00 +2°C° 0 mm 0 mps 465 mmHg 75%
    06:00 +3°C° 0 mm 0 mps 466 mmHg 69%
    07:00 +4°C° 0 mm 0 mps 467 mmHg 63%
    08:00 +5°C° 0 mm 0 mps 468 mmHg 58%
    09:00 +8°C° 0 mm 1 mps 469 mmHg 47%
    10:00 +10°C° 0 mm 1 mps 470 mmHg 36%
    11:00 +10°C° 0 mm 2 mps 471 mmHg 26%
    12:00 +11°C° 0 mm 3 mps 471 mmHg 23%
    13:00 +12°C° 0 mm 3 mps 471 mmHg 20%
    14:00 +13°C° 0 mm 4 mps 471 mmHg 17%
    15:00 +13°C° 0 mm 5 mps 471 mmHg 18%
    16:00 +12°C° 0 mm 5 mps 470 mmHg 18%
    17:00 +12°C° 0 mm 5 mps 470 mmHg 19%
    18:00 +11°C° 0 mm 4 mps 469 mmHg 26%
    19:00 +10°C° 0 mm 3 mps 469 mmHg 32%
    20:00 +8°C° 0 mm 2 mps 469 mmHg 38%
    21:00 +8°C° 0 mm 2 mps 468 mmHg 42%
    22:00 +7°C° 0 mm 2 mps 468 mmHg 46%
    23:00 +7°C° 0 mm 1 mps 468 mmHg 51%
    Show more